Regional Weather Roundup
Issued by NWS

Home | Current Version | Previous Version | Graphics & Text | Print | Product List | Glossary On
Versions: 1 2 3 4 5 6 7 8 9 10 11 12 13 14 15 16 17 18 19 20 21 22 23 24 25 26 27 28 29 30 31 32 33 34 35 36 37 38 39 40 41 42 43 44 45 46 47 48 49 50
000
ASUS43 KFSD 281302
RWRSD

WEATHER ROUNDUP FOR SOUTH DAKOTA
NATIONAL WEATHER SERVICE SIOUX FALLS SD
800 AM CDT SAT MAR 28 2015

NOTE: "FAIR" INDICATES FEW OR NO CLOUDS BELOW 12,000 FEET WITH NO
SIGNIFICANT WEATHER AND/OR OBSTRUCTIONS TO VISIBILITY.


SDZ001>005-009-010-012>017-281400-
NORTHWEST AND NORTH CENTRAL SOUTH DAKOTA

CITY           SKY/WX    TMP DP  RH WIND       PRES   REMARKS
BUFFALO          N/A     38  32  79 S6        29.82F
FAITH            N/A     32  29  88 S15       29.91F WCI  22
MOBRIDGE       CLEAR     24  21  88 E10       29.96S WCI  14
$$

SDZ012>016-024>037-041>051-057-063-072>074-281400-
SOUTHWEST AND SOUTH CENTRAL SOUTH DAKOTA

CITY           SKY/WX    TMP DP  RH WIND       PRES   REMARKS
RAPID CTY ARPT CLEAR     37  31  78 SE3       29.92S
PIERRE         CLEAR     22  21  96 E7        29.99R FOG     WCI  13
CUSTER         CLEAR     39  26  59 NW3       29.98S
ELLSWORTH AFB  CLEAR     41  32  69 S3        29.90F
PHILIP         CLEAR     27  23  85 CALM      29.96R
PINE RIDGE     CLEAR     27  23  85 NW3       29.95S
SPEARFISH      FAIR      46  28  49 CALM      29.91S
WINNER         FAIR      34  28  79 S5        29.99S WCI  30
$$

SDZ004>011-016>023-039-040-281400-
NORTHEAST SOUTH DAKOTA

CITY           SKY/WX    TMP DP  RH WIND       PRES   REMARKS
ABERDEEN       CLOUDY    32  26  78 S12       30.08R WCI  23
WATERTOWN      CLOUDY    29  24  82 S9        30.09R WCI  20
SISSETON         N/A     23  22  96 S6        30.12R WCI  16
$$

SDZ017-020-022-023-036>040-048>070-281400-
SOUTHEAST SOUTH DAKOTA

CITY           SKY/WX    TMP DP  RH WIND       PRES   REMARKS
SIOUX FALLS    PTCLDY    29  26  89 SE8       30.12R WCI  21
HURON          PTCLDY    29  24  82 SE8       30.08S WCI  21
MITCHELL       PTCLDY    28  23  81 SE12      30.09R WCI  18
YANKTON        CLEAR     25  21  86 E6        30.12R WCI  18
$$

ABBREVIATIONS USED IN REMARKS
   TC - TEMPERATURE IN CELSIUS
  WCI - WIND CHILL INDEX
   HX - HEAT INDEX
  VSB - VISIBILITY



USA.gov is the U.S. government's official web portal to all federal, state and local government web resources and services.